DW6386 Weather Reports


time (UTC)temp
F
wind
direction
speed
knots
gust
knots
rain 1hr
in
rain 24hr
in
rain mn
in
humidity
%
barometer
mb
20260831061508 70 150 0.0 0.0 0.00 0.00 0.00 96 1017.9
20260831060006 71 150 0.0 0.0 0.00 0.00 0.00 96 1018.1
20260831054506 71 150 0.0 0.0 0.00 0.00 0.00 96 1018.0
20260831053004 70 150 0.0 0.0 0.00 0.00 0.00 95 1018.0
20260831051504 71 150 0.0 0.0 0.00 0.00 0.00 95 1017.9
20260831050001 71 150 0.0 0.0 0.00 0.00 0.00 95 1017.8
20260831044601 71 150 0.0 0.0 0.00 0.00 0.00 95 1017.7
20260831043100 71 150 0.0 0.0 0.00 0.00 0.00 94 1017.7
20260831041618 71 150 0.0 0.0 0.00 0.00 0.00 94 1017.6
20260831040054 71 150 0.0 0.0 0.00 0.00 0.00 94 1017.7
20260831034555 72 150 0.0 0.0 0.00 0.00 0.00 93 1017.8
20260831033108 72 150 0.0 0.0 0.00 0.00 0.00 92 1017.8
20260831031555 72 150 0.0 0.0 0.00 0.00 0.00 92 1017.8
20260831030052 73 150 0.0 0.0 0.00 0.00 0.00 92 1017.8
20260831024552 73 150 0.0 0.0 0.00 0.00 0.00 92 1017.7
20260831023055 73 150 0.0 0.0 0.00 0.00 0.00 91 1017.7
20260831021550 74 150 0.0 0.0 0.00 0.00 0.00 91 1017.7
20260831020050 74 150 0.0 0.0 0.00 0.00 0.00 90 1017.6
20260831014559 75 150 0.0 0.0 0.00 0.00 0.00 89 1017.4
20260831013056 75 150 0.0 0.0 0.00 0.00 0.00 88 1017.3
20260831011549 76 150 0.0 0.0 0.00 0.00 0.00 87 1017.2
20260831010106 76 150 0.0 0.0 0.00 0.00 0.00 86 1017.0
20260831004548 77 150 0.0 0.0 0.00 0.00 0.00 83 1016.8
20260831003059 78 150 0.0 0.0 0.00 0.00 0.00 81 1016.7
20260831001546 80 150 0.0 0.0 0.00 0.00 0.00 79 1016.6
20260831000049 81 150 0.0 0.0 0.00 0.00 0.00 77 1016.6
20260830234553 82 150 0.0 0.0 0.00 0.00 0.00 74 1016.6
20260830233045 83 150 0.0 0.0 0.00 0.00 0.00 72 1016.6
20260830231548 84 150 0.0 0.0 0.00 0.00 0.00 70 1016.6
20260830230048 85 150 0.0 0.0 0.00 0.00 0.00 68 1016.6
20260830224552 86 151 0.0 0.0 0.00 0.00 0.00 65 1016.4
20260830223044 86 150 0.0 0.0 0.00 0.00 0.00 63 1016.3
20260830221542 87 160 0.0 0.9 0.00 0.00 0.00 62 1016.4
20260830220040 87 120 0.0 0.9 0.00 0.00 0.00 57 1016.5
20260830214542 88 229 0.0 1.7 0.00 0.00 0.00 58 1016.5
20260830213039 88 344 0.9 2.6 0.00 0.00 0.00 59 1016.6
20260830211539 89 281 0.9 2.6 0.00 0.00 0.00 55 1016.6
20260830210044 90 239 0.0 1.7 0.00 0.00 0.00 55 1016.6
20260830204540 91 65 0.0 3.5 0.00 0.00 0.00 55 1016.6
20260830203035 91 40 0.0 4.3 0.00 0.00 0.00 53 1016.8
20260830201534 92 98 0.0 3.5 0.00 0.00 0.00 53 1016.9
20260830200030 92 314 0.9 3.5 0.00 0.00 0.00 54 1017.3
20260830194528 91 60 1.7 5.2 0.00 0.00 0.00 55 1017.5
20260830193025 91 260 0.0 3.5 0.00 0.00 0.00 58 1017.7
20260830191522 91 279 0.9 2.6 0.00 0.00 0.00 56 1018.0
20260830190020 90 250 0.0 3.5 0.00 0.00 0.00 56 1018.2
20260830184518 91 58 0.9 3.5 0.00 0.00 0.00 58 1018.5
20260830183015 90 306 0.9 3.5 0.00 0.00 0.00 58 1018.7
20260830181514 90 41 1.7 5.2 0.00 0.00 0.00 60 1018.9
20260830180012 89 63 0.9 4.3 0.00 0.00 0.00 61 1019.1
20260830174510 88 308 0.9 7.8 0.00 0.00 0.00 65 1019.3
20260830173015 88 50 1.7 3.5 0.00 0.00 0.00 62 1019.6
20260830171506 87 16 0.0 5.2 0.00 0.00 0.00 65 1019.7
20260830170006 86 65 0.9 6.1 0.00 0.00 0.00 68 1019.9
20260830164503 86 76 0.0 2.6 0.00 0.00 0.00 70 1020.1
20260830163102 85 60 1.7 5.2 0.00 0.00 0.00 72 1020.3
20260830161625 86 289 1.7 5.2 0.00 0.00 0.00 71 1020.3
20260830160055 84 53 0.9 6.1 0.00 0.00 0.00 74 1020.5
20260830154552 83 52 1.7 5.2 0.00 0.00 0.00 75 1020.4
20260830153052 82 65 0.9 1.7 0.00 0.00 0.00 77 1020.6
20260830151551 82 67 0.0 3.5 0.00 0.00 0.00 79 1020.6
20260830150107 83 60 0.9 2.6 0.00 0.00 0.00 78 1020.6
20260830144547 82 75 0.9 4.3 0.00 0.00 0.00 80 1020.5
20260830143048 82 275 0.0 2.6 0.00 0.00 0.00 81 1020.4
20260830141540 79 47 0.0 2.6 0.00 0.00 0.00 84 1020.4
20260830140037 78 72 0.0 1.7 0.00 0.00 0.00 89 1020.4
20260830134538 76 233 0.0 0.0 0.00 0.00 0.00 93 1020.4
20260830133030 75 234 0.0 0.9 0.00 0.00 0.00 95 1020.4
20260830131538 74 241 0.0 0.9 0.00 0.00 0.00 96 1020.3
20260830130025 74 148 0.0 0.0 0.00 0.00 0.00 98 1020.1
20260830124523 74 147 0.0 0.0 0.00 0.00 0.00 99 1020.0
20260830123020 72 147 0.0 0.0 0.00 0.00 0.00 99 1020.1
20260830121522 71 147 0.0 0.0 0.00 0.00 0.00 99 1019.8
20260830120016 69 147 0.0 0.0 0.00 0.00 0.00 99 1019.6
20260830114519 68 147 0.0 0.0 0.00 0.00 0.00 99 1019.5
20260830113014 68 147 0.0 0.0 0.00 0.00 0.00 99 1019.5
20260830111513 68 147 0.0 0.0 0.00 0.00 0.00 98 1019.3
20260830110009 68 147 0.0 0.0 0.00 0.00 0.00 99 1019.1
20260830104507 68 147 0.0 0.0 0.00 0.00 0.00 98 1019.0
20260830103009 68 147 0.0 0.0 0.00 0.00 0.00 98 1019.0
20260830101504 68 147 0.0 0.0 0.00 0.00 0.00 98 1019.0
20260830100003 68 147 0.0 0.0 0.00 0.00 0.00 98 1018.8
20260830094502 68 147 0.0 0.0 0.00 0.00 0.00 98 1018.9
20260830093001 69 147 0.0 0.0 0.00 0.00 0.00 98 1018.9
20260830091503 69 147 0.0 0.0 0.00 0.00 0.00 98 1018.7
20260830090100 68 147 0.0 0.0 0.00 0.00 0.00 98 1018.7
20260830084557 69 147 0.0 0.0 0.00 0.00 0.00 98 1018.6
20260830083058 69 147 0.0 0.0 0.00 0.00 0.00 98 1018.5
20260830081558 69 147 0.0 0.0 0.00 0.00 0.00 98 1018.6
20260830080058 69 147 0.0 0.0 0.00 0.00 0.00 98 1018.6
20260830074606 69 147 0.0 0.0 0.00 0.00 0.00 97 1018.6
20260830073103 70 147 0.0 0.0 0.00 0.00 0.00 97 1018.6
20260830071601 69 147 0.0 0.0 0.00 0.00 0.00 97 1018.5
20260830070050 70 147 0.0 0.0 0.00 0.00 0.00 97 1018.5
20260830064606 70 147 0.0 0.0 0.00 0.00 0.00 97 1018.3
20260830063047 70 147 0.0 0.0 0.00 0.00 0.00 96 1018.4